User: anonymous
Location: Wawayanda State Park
(41.1833°N, 74.4333°W)
Time: 22:17:15
(UTC-04:00)
Language:

RESURS DK-1 - Orbit

View from above orbital plane
View from above orbital plane
View from above satellite
View from above satellite

Ground track
Ground track

The orbit data is extracted from the following two-line orbital elements,

1 29228U 06021A   14265.88809811  .00000674  00000-0  60442-4 0  2566
2 29228 069.9373 116.1258 0001867 057.5536 302.5803 15.00814944458238
Epoch (UTC): 22 September 2014 21:18:51
Eccentricity: 0.0001867
inclination: 69.9373°
perigee height: 563 km
apogee height: 565 km
right ascension of ascending node: 116.1258°
argument of perigee: 57.5536°
revolutions per day: 15.00814944
mean anomaly at epoch: 302.5803°
orbit number at epoch: 45823

The dashed part of the orbit path shows where the satellite is in the earth's shadow,  

DLR